Location: Mason
(37.5237°N, 89.2543°W)
Time: 07:27:22
(UTC+00:00)

Cosmos 1092 Rocket - Pass Details

Date: 24 January 2021
Orbit: 954 x 994 km, 83.0° (Epoch: 08 March)

Event Time Altitude Azimuth Distance (km) Brightness Sun altitude
Rises 12:01:05 0° 349° (N) 3,641 6.7 -13.0°
Reaches altitude 10° 12:03:36 10° 346° (NNW) 2,694 6.0 -12.6°
Maximum altitude 12:09:39 63° 268° (W) 1,070 4.0 -11.4°
Drops below altitude 10° 12:15:44 10° 188° (S) 2,698 6.4 -10.2°
Sets 12:18:15 0° 185° (S) 3,646 7.2 -9.8°
